CZ-4 DEB, 26205

Orbit data source: Space-Track

CZ-4 DEB, 26205 is space debris in SSO originally from a launch on Thu, 14 Oct 1999 UTC launched from the Taiyaun Space Center, China (TSC). Debris objects in space refer to the collection of defunct objects orbiting the Earth. Examples of debris include non-operational satellites, rocket bodies, and fragments generated from explosions, collisions, or faulty payload assembly.

Loading next visibility...
Identifier
26205, 1999-057CT
Orbit
SSO
Country
Flag of CNCN / PRC
Related business
Manufacturer
Unknown
Mission
Spacecraft
Bus & Motor
Unknown
Mass
Unknown
Launch date (UTC)
1999-10-14 (26 years ago)
Launch vehicle
Unknown
Launch site
Taiyaun Space Center, China (TSC)
Object type
Payload
Rocket body
Debris
Shape & HBR
Unknown shape, 0.1 m
Radar Cross Section
Small (<0.1 m²)

Expand to show TLE details & history
Last TLE update: 23 hours ago

TLE from 23 hours ago
0 CZ-4 DEB
1 26205U 99057CT  25349.98337537  .00000929  00000-0  94929-3 0  9999
2 26205  99.1365 348.1239 0640600 292.9808  60.4974 13.12731695229027
Epoch: 2025-12-15T23:36Z
TLE epoch observation values (Epoch: 2025-12-15T23:36:03.631Z)
Latitude
-0.0001°
Longitude
-90.76533°
Altitude
1,000.585 km
Speed
7.455 km/s
True Right ascension
23h 12m 29s
True Declination
0° 00' 00"
Sunlit
Object was in daylight at epoch
Visualization orbit readout
Latitude
Unknown
Longitude
Unknown
Altitude
Unknown
Speed
Unknown
Apparent Right ascension
Unknown
Apparent Declination
Unknown
Sunlit
N/A
Visualization observer readout
Local Sidereal Time
21:39:34
Azimuth
Unknown
Elevation
Unknown
Doppler factor
Unknown
Orbital elements
Apogee altitude
1,696.008 km
Perigee altitude
723.827 km
Semi-major axis
7,588.054 km
Eccentricity
0.06406
Inclination
99.1365°
RAAN
348.1239°
Arg. of periapsis
292.9808°
True anomaly
67.13318°
Mean anomaly
60.4974°
Eccentric anomaly
63.7904°
Mean motion
3.28358 °/min
Orbital period
109.64 mins
BSTAR
0.00094929
Loading maneuver chart data...
Computing Atmospheric mass density...
Loading historical data...
Loading historical data...
Loading historical data...
Loading historical data...
Loading historical data...
Loading historical data...
Loading historical data...

Documentation

Showing up to 5 results
|